M1DJR Weather Reports


Display with metric or nautical units.
time (UTC)temp
F
wind
direction
speed
MPH
gust
MPH
rain 1hr
in
rain 24hr
in
rain mn
in
humidity
%
barometer
mb
20260507150646 64 0.0 0.0 0.00 0.00 0.00 36 1013.7
20260507145642 63 0.0 0.0 0.00 0.00 0.00 36 1013.8
20260507144641 63 0.0 0.0 0.00 0.00 0.00 36 1013.8
20260507143639 63 0.0 0.0 0.00 0.00 0.00 35 1013.9
20260507142717 64 0.0 0.0 0.00 0.00 0.00 34 1014.1
20260507141635 64 0.0 0.0 0.00 0.00 0.00 37 1014.2
20260507140714 62 0.0 0.0 0.00 0.00 0.00 40 1014.2
20260507135632 61 0.0 0.0 0.00 0.00 0.00 40 1014.3
20260507134628 61 0.0 0.0 0.00 0.00 0.00 39 1014.5
20260507133627 61 0.0 0.0 0.00 0.00 0.00 38 1014.5
20260507132625 62 0.0 0.0 0.00 0.00 0.00 38 1014.5
20260507131703 63 0.0 0.0 0.00 0.00 0.00 37 1014.5
20260507130621 64 0.0 0.0 0.00 0.00 0.00 37 1014.4
20260507125618 64 0.0 0.0 0.00 0.00 0.00 36 1014.5
20260507124617 64 0.0 0.0 0.00 0.00 0.00 37 1014.4
20260507123654 64 0.0 0.0 0.00 0.00 0.00 38 1014.5
20260507122613 64 0.0 0.0 0.00 0.00 0.00 39 1014.5
20260507121610 63 0.0 0.0 0.00 0.00 0.00 39 1014.6
20260507120609 62 0.0 0.0 0.00 0.00 0.00 41 1014.6
20260507115606 62 0.0 0.0 0.00 0.00 0.00 42 1014.8
20260507114605 62 0.0 0.0 0.00 0.00 0.00 42 1014.8
20260507113603 62 0.0 0.0 0.00 0.00 0.00 43 1014.9
20260507112601 61 0.0 0.0 0.00 0.00 0.00 44 1014.9
20260507111559 60 0.0 0.0 0.00 0.00 0.00 47 1015.0
20260507110636 60 0.0 0.0 0.00 0.00 0.00 48 1015.0
20260507105635 59 0.0 0.0 0.00 0.00 0.00 52 1015.0
20260507104552 58 0.0 0.0 0.00 0.00 0.00 53 1015.1
20260507103551 58 0.0 0.0 0.00 0.00 0.00 53 1015.2
20260507102549 57 0.0 0.0 0.00 0.00 0.00 56 1015.2
20260507101546 57 0.0 0.0 0.00 0.00 0.00 57 1015.2
20260507100545 56 0.0 0.0 0.00 0.00 0.00 59 1015.2
20260507095542 55 0.0 0.0 0.00 0.00 0.00 61 1015.2
20260507094541 55 0.0 0.0 0.00 0.00 0.00 62 1015.3
20260507093539 54 0.0 0.0 0.00 0.00 0.00 64 1015.3
20260507092537 53 0.0 0.0 0.00 0.00 0.00 65 1015.3
20260507091534 53 0.0 0.0 0.00 0.00 0.00 66 1015.3
20260507090533 52 0.0 0.0 0.00 0.00 0.00 67 1015.3
20260507085530 51 0.0 0.0 0.00 0.00 0.00 69 1015.3
20260507084529 51 0.0 0.0 0.00 0.00 0.00 70 1015.3
20260507083527 50 0.0 0.0 0.00 0.00 0.00 72 1015.3
20260507082525 50 0.0 0.0 0.00 0.00 0.00 73 1015.3
20260507081524 49 0.0 0.0 0.00 0.00 0.00 75 1015.4
20260507080601 48 0.0 0.0 0.00 0.00 0.00 76 1015.4
20260507075559 47 0.0 0.0 0.00 0.00 0.00 77 1015.4
20260507074517 46 0.0 0.0 0.00 0.00 0.00 78 1015.3
20260507073514 46 0.0 0.0 0.00 0.00 0.00 80 1015.3
20260507072513 45 0.0 0.0 0.00 0.00 0.00 81 1015.2
20260507071510 44 0.0 0.0 0.00 0.00 0.00 82 1015.2
20260507070549 44 0.0 0.0 0.00 0.00 0.00 83 1015.2
20260507065508 43 0.0 0.0 0.00 0.00 0.00 84 1015.2
20260507064505 42 0.0 0.0 0.00 0.00 0.00 84 1015.1
20260507063544 42 0.0 0.0 0.00 0.00 0.00 84 1015.1
20260507062502 41 0.0 0.0 0.00 0.00 0.00 84 1015.0
20260507061459 41 0.0 0.0 0.00 0.00 0.00 83 1015.0
20260507060456 41 0.0 0.0 0.00 0.00 0.00 83 1014.8
20260507055455 40 0.0 0.0 0.00 0.00 0.00 83 1014.9
20260507054453 40 0.0 0.0 0.00 0.00 0.00 82 1014.9
20260507053531 40 0.0 0.0 0.00 0.00 0.00 82 1014.9
20260507052448 41 0.0 0.0 0.00 0.00 0.00 82 1014.9
20260507051447 41 0.0 0.0 0.00 0.00 0.00 81 1014.9
20260507050446 41 0.0 0.0 0.00 0.00 0.00 81 1014.9
20260507045443 41 0.0 0.0 0.00 0.00 0.00 81 1014.8
20260507044441 41 0.0 0.0 0.00 0.00 0.00 81 1014.6
20260507043438 41 0.0 0.0 0.00 0.00 0.00 81 1014.6
20260507042437 41 0.0 0.0 0.00 0.00 0.00 81 1014.5
20260507041514 41 0.0 0.0 0.00 0.00 0.00 80 1014.5
20260507040433 41 0.0 0.0 0.00 0.00 0.00 80 1014.5
20260507035511 41 0.0 0.0 0.00 0.00 0.00 80 1014.4
20260507034429 42 0.0 0.0 0.00 0.00 0.00 80 1014.4
20260507033426 41 0.0 0.0 0.00 0.00 0.00 80 1014.4
20260507032425 41 0.0 0.0 0.00 0.00 0.00 80 1014.4
20260507031422 41 0.0 0.0 0.00 0.00 0.00 81 1014.5
20260507030421 41 0.0 0.0 0.00 0.00 0.00 81 1014.6
20260507025420 41 0.0 0.0 0.00 0.00 0.00 81 1014.6
20260507024457 41 0.0 0.0 0.00 0.00 0.00 81 1014.6
20260507023415 41 0.0 0.0 0.00 0.00 0.00 80 1014.5
20260507022413 41 0.0 0.0 0.00 0.00 0.00 80 1014.6
20260507021451 41 0.0 0.0 0.00 0.00 0.00 80 1014.6
20260507020409 41 0.0 0.0 0.00 0.00 0.00 79 1014.8
20260507015407 41 0.0 0.0 0.00 0.00 0.00 79 1014.9
20260507014406 41 0.0 0.0 0.00 0.00 0.00 79 1014.9
20260507013443 42 0.0 0.0 0.00 0.00 0.00 79 1014.9
20260507012400 42 0.0 0.0 0.00 0.00 0.00 78 1014.9
20260507011359 42 0.0 0.0 0.00 0.00 0.00 78 1014.9
20260507010357 42 0.0 0.0 0.00 0.00 0.00 78 1015.0
20260507005354 42 0.0 0.0 0.00 0.00 0.00 78 1015.0
20260507004433 42 0.0 0.0 0.00 0.00 0.00 78 1015.0
20260507003350 42 0.0 0.0 0.00 0.00 0.00 79 1015.1
20260507002429 42 0.0 0.0 0.00 0.00 0.00 78 1015.2
20260507001346 42 0.0 0.0 0.00 0.00 0.00 78 1015.3
20260507000345 42 0.0 0.0 0.00 0.00 0.00 78 1015.3
20260506235342 42 0.0 0.0 0.00 0.00 0.00 78 1015.2
20260506234341 42 0.0 0.0 0.00 0.00 0.00 78 1015.3
20260506233338 42 0.0 0.0 0.00 0.00 0.00 78 1015.3
20260506232417 42 0.0 0.0 0.00 0.00 0.00 77 1015.2
20260506231414 42 0.0 0.0 0.00 0.00 0.00 77 1015.3
20260506230333 42 0.0 0.0 0.00 0.00 0.00 77 1015.3
20260506225331 42 0.0 0.0 0.00 0.00 0.00 76 1015.3
20260506224329 42 0.0 0.0 0.00 0.00 0.00 76 1015.4
20260506223406 42 0.0 0.0 0.00 0.00 0.00 75 1015.3
20260506222325 42 0.0 0.0 0.00 0.00 0.00 75 1015.2
20260506221322 43 0.0 0.0 0.00 0.00 0.00 75 1015.1
20260506220321 43 0.0 0.0 0.00 0.00 0.00 74 1015.1
20260506215359 43 0.0 0.0 0.00 0.00 0.00 74 1015.1
20260506214317 44 0.0 0.0 0.00 0.00 0.00 73 1014.9
20260506213315 44 0.0 0.0 0.00 0.00 0.00 73 1014.8
20260506212312 44 0.0 0.0 0.00 0.00 0.00 72 1014.6
20260506211311 44 0.0 0.0 0.00 0.00 0.00 72 1014.5
20260506210309 45 0.0 0.0 0.00 0.00 0.00 71 1014.4
20260506205306 45 0.0 0.0 0.00 0.00 0.00 71 1014.3
20260506204345 45 0.0 0.0 0.00 0.00 0.00 70 1014.4
20260506203303 46 0.0 0.0 0.00 0.00 0.00 70 1014.4
20260506202301 46 0.0 0.0 0.00 0.00 0.00 69 1014.4
20260506201339 47 0.0 0.0 0.00 0.00 0.00 69 1014.2
20260506200258 47 0.0 0.0 0.00 0.00 0.00 69 1014.1
20260506195254 47 0.0 0.0 0.00 0.00 0.00 69 1014.1
20260506194253 48 0.0 0.0 0.00 0.00 0.00 68 1013.9
20260506193251 48 0.0 0.0 0.00 0.00 0.00 67 1013.9
20260506192248 49 0.0 0.0 0.00 0.00 0.00 65 1013.8
20260506191247 49 0.0 0.0 0.00 0.00 0.00 64 1013.9
20260506190244 50 0.0 0.0 0.00 0.00 0.00 64 1013.9
20260506185323 50 0.0 0.0 0.00 0.00 0.00 63 1014.0
20260506184321 50 0.0 0.0 0.00 0.00 0.00 62 1013.9
20260506183239 50 0.0 0.0 0.00 0.00 0.00 61 1013.9
20260506182236 51 0.0 0.0 0.00 0.00 0.00 60 1013.9
20260506181315 51 0.0 0.0 0.00 0.00 0.00 60 1013.9
20260506180233 51 0.0 0.0 0.00 0.00 0.00 59 1013.9
20260506175311 51 0.0 0.0 0.00 0.00 0.00 59 1013.8
20260506174229 52 0.0 0.0 0.00 0.00 0.00 58 1013.7
20260506173227 52 0.0 0.0 0.00 0.00 0.00 58 1013.7
20260506172225 52 0.0 0.0 0.00 0.00 0.00 57 1013.6
20260506171223 52 0.0 0.0 0.00 0.00 0.00 57 1013.6
20260506170222 52 0.0 0.0 0.00 0.00 0.00 57 1013.6
20260506165219 52 0.0 0.0 0.00 0.00 0.00 56 1013.5
20260506164217 53 0.0 0.0 0.00 0.00 0.00 56 1013.5
20260506163215 53 0.0 0.0 0.00 0.00 0.00 55 1013.5
20260506162213 53 0.0 0.0 0.00 0.00 0.00 55 1013.5
20260506161251 53 0.0 0.0 0.00 0.00 0.00 53 1013.4
20260506160209 53 0.0 0.0 0.00 0.00 0.00 53 1013.5
20260506155206 54 0.0 0.0 0.00 0.00 0.00 50 1013.4
20260506154205 54 0.0 0.0 0.00 0.00 0.00 50 1013.4
20260506153243 54 0.0 0.0 0.00 0.00 0.00 51 1013.4
20260506152241 53 0.0 0.0 0.00 0.00 0.00 50 1013.4